Вернуться в каталог

STARLINK-31677

АктивенСвязьVLEO
NORAD 59749·PAYLOAD·🇺🇸 United States

Запущен May 13, 2024 с Cape Canaveral Space Force Station

Loading…

Ближайшие Пролёты (ближайшие 24 часа)

TLE

СвежийSource: CelesTrak SupGP

Эпоха: Sep 14, 2026, 13:51 UTC

1 59749C 24090V   26257.57756944  .00043578  00000+0  15800-2 0  2577
2 59749  43.0021 197.0236 0001811 275.6466 131.6429 15.27522245    13

Отслеживайте STARLINK-31677 в реальном времени с AllMySat

Download on the App Store